Regional Weather Roundup
Issued by NWS Little Rock, AR

Home | Current Version | Previous Version | Text Only | Print | Product List | Glossary On
Versions: 1 2 3 4 5 6 7 8 9 10 11 12 13 14 15 16 17 18 19 20 21 22 23 24 25 26 27 28 29 30 31 32 33 34 35 36 37 38 39 40 41 42 43 44 45 46 47 48 49 50
000
ASUS44 KLZK 250505
RWRLZK

WEATHER ROUNDUP FOR ARKANSAS
NATIONAL WEATHER SERVICE LITTLE ROCK AR
1200 AM CDT THU MAY 25 2017

NOTE: "FAIR" INDICATES FEW OR NO CLOUDS BELOW 12,000 FEET WITH NO
SIGNIFICANT WEATHER AND/OR OBSTRUCTIONS TO VISIBILITY.

ARZ001-003-010-029-250600-
NORTHWEST ARKANSAS

CITY           SKY/WX    TMP DP  RH WIND       PRES   REMARKS
FAYETTEVILLE   CLEAR     47  47 100 S5        29.74R
FORT SMITH     CLEAR     55  48  77 W6        29.73R
HARRISON       CLEAR     50  50 100 W3        29.73R
BENTONVILLE    CLEAR     50  46  87 CALM      29.74R
ROGERS         CLEAR     52  48  86 SW3       29.74R
SILOAM SPGS    CLEAR     52  45  76 CALM      29.74R
HIGHFILL       CLEAR     51  48  89 CALM      29.74R
$$

ARZ004-005-016-250600-
NORTH CENTRAL ARKANSAS

CITY           SKY/WX    TMP DP  RH WIND       PRES   REMARKS
BATESVILLE     CLEAR     54  48  82 W5        29.71R
FLIPPIN        CLEAR     50  45  81 CALM      29.69S
$$

ARZ040-041-250600-
WEST CENTRAL ARKANSAS

CITY           SKY/WX    TMP DP  RH WIND       PRES   REMARKS
MENA           CLEAR     50  50 100 CALM      29.75F
MOUNT IDA      CLEAR     50  48  93 CALM      29.72R
$$

ARZ009-017-025-026-028-250600-
NORTHEAST ARKANSAS

CITY           SKY/WX    TMP DP  RH WIND       PRES   REMARKS
JONESBORO      CLEAR     56  51  84 W6        29.67S
WALNUT RIDGE   CLEAR     54  46  76 W8        29.68R
BLYTHEVILLE    CLEAR     56  53  90 W3        29.66R
$$

ARZ022-023-033-042-044-250600-
CENTRAL ARKANSAS

CITY           SKY/WX    TMP DP  RH WIND       PRES   REMARKS
LITTLE ROCK    CLEAR     55  54  96 W5        29.73R
N LITTLE ROCK    N/A     54  51  90 CALM      29.73R
JACKSONVILLE   CLEAR     55  53  93 W7        29.71R
CONWAY           N/A     57  54  88 W5        29.71S
SEARCY         CLEAR     55  51  86 NW5       29.72R
HOT SPRINGS    CLEAR     55  51  86 CALM      29.74R
RUSSELLVILLE   CLEAR     52  51  97 CALM      29.72S
CLINTON        FAIR      50  50 100 CALM      29.72S
$$

ARZ036-250600-
EAST ARKANSAS

CITY           SKY/WX    TMP DP  RH WIND       PRES   REMARKS
WEST MEMPHIS   CLEAR     56  52  86 VRB3      29.67R
$$

ARZ050-053-066-070-073-250600-
SOUTHWEST ARKANSAS

CITY           SKY/WX    TMP DP  RH WIND       PRES   REMARKS
ARKADELPHIA    FAIR      54  52  93 CALM      29.75R
CAMDEN         CLEAR     54  50  87 CALM      29.75R
TEXARKANA      CLEAR     55  51  86 CALM      29.75S
EL DORADO      CLEAR     53  51  93 CALM      29.76R
DE QUEEN       CLEAR     50  50 100 CALM      29.74R
$$

ARZ056-057-069-250600-
SOUTHEAST ARKANSAS

CITY           SKY/WX    TMP DP  RH WIND       PRES   REMARKS
PINE BLUFF     CLEAR     58  50  75 W3        29.73R
STUTTGART      CLEAR     57  45  62 W8        29.72S
MONTICELLO     CLEAR     55  51  86 W3        29.73R

$$





USA.gov is the U.S. government's official web portal to all federal, state and local government web resources and services.